Dewpoint
67 67 68 68 68 68 68 68 68 68 68 67 68 67 65 65 64 64 66 68 69 70 69 68 69 69 68 67 66 68 68 68 68
64 64 65 66 67 68 68 68 68 68 68 67 67 66 65 63 62 62 65 66 68 67 69 68 68 69 68 67 66 66 67 67 67
61 61 62 62 64 65 65 65 66 68 68 68 67 67 65 62 62 62 63 66 65 67 68 68 67 68 68 68 66 65 66 66 65
55 56 56 58 59 59 59 60 62 63 65 65 66 66 65 64 63 62 62 65 66 64 66 68 68 67 68 67 66 66 66 65 65
48 48 50 52 53 53 54 54 55 55 56 59 61 64 65 64 64 64 64 65 67 65 64 66 68 67 66 67 67 66 66 65 66
34 42 43 45 45 46 48 48 47 45 46 50 54 58 60 63 64 64 65 66 66 66 66 65 66 68 67 67 68 67 66 65 65
30 34 38 39 39 40 41 42 40 37 35 36 43 44 50 58 61 63 65 66 67 67 66 66 66 66 68 68 67 67 67 66 67
26 28 28 27 31 26 29 28 28 28 30 27 25 29 32 40 48 58 62 65 66 67 67 67 67 67 67 68 67 67 68 67 67
23 24 25 25 25 24 26 25 23 26 24 19 18 20 26 28 33 42 53 58 64 66 66 67 67 68 67 67 67 68 68 67 67
23 23 24 24 23 24 23 21 21 24 20 16 16 17 23 29 32 34 48 52 58 63 65 66 66 67 66 67 68 68 67 67 67
22 22 23 22 23 24 21 19 20 22 16 14 15 16 21 25 28 36 45 53 58 62 64 65 66 66 66 66 67 68 67 67 67
22 22 22 22 21 22 20 18 20 18 16 14 16 16 18 25 38 45 49 53 57 58 58 61 65 65 66 66 66 67 67 67 66
21 22 22 23 21 21 19 20 19 18 17 16 16 18 22 32 37 38 36 34 39 42 48 50 55 56 59 65 66 66 67 67 67
20 21 22 22 21 20 19 20 21 20 19 18 17 21 27 38 20 25 31 27 32 31 37 37 46 47 51 56 62 63 66 66 66
20 20 20 21 20 20 19 18 19 20 21 20 20 25 31 31 19 24 22 26 24 20 24 22 34 38 40 50 53 55 59 62 66
19 19 19 19 18 19 18 19 18 19 22 23 19 28 27 25 13 22 20 22 19 18 18 23 26 22 36 41 46 52 55 58 61
16 18 18 18 17 17 18 18 18 20 21 22 23 18 19 19 18 19 17 19 16 17 18 22 19 25 29 34 42 49 50 53 57
17 17 18 17 17 16 16 18 19 17 20 24 21 12 14 16 24 21 13 17 16 18 22 17 21 21 27 34 40 44 45 48 53
16 16 17 16 16 15 15 16 18 18 16 21 19 22 22 18 15 17 11 15 15 17 18 18 20 22 24 30 36 39 40 44 46
13 13 15 15 13 14 14 15 15 17 18 19 20 20 21 22 22 12 13 15 15 17 16 19 20 19 21 28 31 33 36 39 43
Lifted_Index
1 0 -0 -1 -1 -1 -1 -1 -1 -1 -1 -1 -0 0 1 2 1 1 -0 -1 -2 -2 -2 -2 -2 -1 -1 -0 -0 -0 -1 -1 -0
1 1 1 0 -0 -0 -1 -1 -1 -1 -1 -0 0 1 1 1 2 1 1 -1 -1 -2 -2 -2 -2 -1 -1 -0 -0 -0 -0 -0 0
2 2 2 2 1 1 1 1 0 -0 -0 0 1 1 1 1 2 2 1 0 -0 -1 -1 -1 -1 -1 -1 -1 0 0 0 1 1
1 1 2 2 2 2 2 2 1 1 1 1 1 1 1 1 1 2 2 1 0 -0 -1 -1 -1 -1 -1 -0 0 1 1 1 1
1 1 1 2 2 2 2 2 2 2 1 1 1 1 1 1 1 2 2 1 0 0 0 -0 -1 -1 -1 -0 0 1 1 1 1
3 2 2 2 2 2 2 2 2 2 2 2 1 1 1 1 1 1 2 1 1 0 0 0 -0 -1 -1 -0 -0 0 1 1 1
5 5 4 3 3 2 2 2 2 2 2 2 2 2 2 1 1 2 2 1 1 1 1 1 0 -0 -1 -0 -0 -0 0 1 1
10 9 8 8 7 6 5 4 3 3 3 2 2 2 2 2 2 2 2 2 1 1 1 1 0 -0 -0 -0 -0 -0 0 1 1
16 15 15 14 13 12 10 9 8 7 6 5 4 3 2 2 2 2 2 2 2 1 1 1 0 0 -0 -0 -0 -0 0 1 1
20 20 19 19 19 18 16 15 14 13 11 9 8 6 5 4 3 2 2 2 2 2 1 1 1 0 0 -0 -0 -0 0 1 1
21 21 21 21 21 21 20 19 18 17 16 15 13 12 10 8 6 5 4 3 2 2 2 1 1 1 0 -0 -0 -0 0 1 1
22 22 22 22 22 22 21 21 20 19 19 18 17 16 15 14 11 9 8 6 4 3 2 2 1 1 1 0 -0 -0 -0 0 1
23 23 23 23 23 23 22 21 21 20 19 19 18 18 18 17 16 14 12 10 7 5 3 2 2 1 1 1 0 -0 -0 -0 0
24 23 24 24 24 23 23 22 22 21 20 20 19 19 19 19 18 17 16 13 11 8 5 4 3 2 2 1 1 0 -0 -0 -0
24 24 24 24 24 24 23 23 23 23 22 21 20 20 20 20 19 19 18 16 14 12 9 7 5 4 3 2 1 1 1 -0 -0
24 24 24 24 24 24 24 24 24 24 23 22 20 19 20 20 20 20 20 19 18 17 15 12 10 8 6 4 3 2 2 1 0
24 24 24 24 24 24 24 24 24 24 24 23 20 18 18 20 21 21 21 21 21 21 20 18 16 14 12 10 7 5 4 2 2
24 24 24 24 24 24 25 25 24 24 25 25 23 20 18 19 20 21 22 23 23 23 22 22 21 20 18 17 14 12 9 6 5
24 24 24 24 24 24 24 25 25 25 25 25 25 24 23 21 19 20 22 23 24 24 24 24 23 23 23 22 21 19 16 13 10
23 23 24 24 24 24 24 25 25 25 25 25 26 26 25 23 21 20 21 23 24 25 25 25 24 24 24 24 23 23 21 18 16